Stations météo

réclame
Mon MeteoGroup
Geisenheim, Allemagne (10628): Température de l'air & dewpoint: 11.07.2018 13:00:00 - 17.07.2018 13:00:00 (CEST)Geisenheim, Allemagne (10628): Température de l'air 5cm & Température de l'air -5cm: 11.07.2018 13:00:00 - 17.07.2018 13:00:00 (CEST)Geisenheim, Allemagne (10628): Température de l'air -20cm & Température de l'air -100cm: 11.07.2018 13:00:00 - 17.07.2018 13:00:00 (CEST)Geisenheim, Allemagne (10628): Vitesse du vent & gusts: 11.07.2018 13:00:00 - 17.07.2018 13:00:00 (CEST)Geisenheim, Allemagne (10628): Direction du vent: 11.07.2018 13:00:00 - 17.07.2018 13:00:00 (CEST)Geisenheim, Allemagne (10628): reduced air pressure: 11.07.2018 13:00:00 - 17.07.2018 13:00:00 (CEST)Geisenheim, Allemagne (10628): visibility: 11.07.2018 13:00:00 - 17.07.2018 13:00:00 (CEST)Geisenheim, Allemagne (10628): Ensoleillement: 11.07.2018 13:00:00 - 17.07.2018 13:00:00 (CEST)Geisenheim, Allemagne (10628): Quantités de précipitations: 11.07.2018 13:00:00 - 17.07.2018 13:00:00 (CEST)
Date & Time tt [°C] td [°C] tt 5cm [°C] tt -5cm [°C] tt -20cm [°C] tt -100cm [°C] ff [km/h] ff [knt] fx [km/h] fx [knt] dd ppp [hPa] vv [km] sd [min] rr [mm]
17.07.2018 13:00:00 29,5 9,0 35,5 28,9 24,2 21,5 9 5 18 10 WNW 1014,0 46 28 0,0
17.07.2018 12:00:00 27,0 10,2 29,9 28,5 23,7 21,5 7 4 22 12 WSW 1014,1 44 52 0,0
17.07.2018 11:00:00 26,9 10,4 32,0 25,9 23,4 21,5 5 3 11 6 SW 1014,0 29 60 0,0
17.07.2018 10:00:00 22,5 12,8 26,7 23,2 23,3 21,5 6 3 11 6 SSW 1014,3 42 60 0,0
17.07.2018 09:00:00 18,9 12,5 20,7 21,4 23,5 21,5 5 3 8 4 SW 1014,6 33 43 0,0
17.07.2018 08:00:00 17,5 12,6 18,2 20,5 23,7 21,5 5 3 9 5 SW 1014,5 27 60 0,0
17.07.2018 07:00:00 15,3 11,7 14,5 20,1 24,1 21,5 3 2 6 3 WNW 1014,3 31 41 0,0
17.07.2018 06:00:00 14,5 11,5 12,1 20,4 24,4 21,5 3 2 6 4 NNE 1014,2 29 0 0,0
17.07.2018 05:00:00 15,3 12,7 12,3 21,1 24,8 21,5 4 2 6 3 SW 1013,4 35 0 0,0
17.07.2018 04:00:00 16,0 12,3 13,1 21,8 25,2 21,5 3 1 5 3 SW 1013,4 44 0 0,0
17.07.2018 03:00:00 16,6 12,0 14,4 22,6 25,6 21,5 4 2 7 4 NW 1013,4 49 0 0,0
17.07.2018 02:00:00 17,7 12,0 15,7 23,3 26,0 21,5 5 3 12 6 NW 1013,5 56 0 0,0
17.07.2018 01:00:00 18,9 12,5 16,9 24,1 26,3 21,5 5 3 12 7 NW 1013,2 57 0 0,0
17.07.2018 00:00:00 18,6 12,4 17,0 25,1 26,7 21,5 7 4 14 8 NNW 1013,0 59 0 0,0
16.07.2018 23:00:00 20,5 12,4 19,2 26,3 27,0 21,5 11 6 14 7 N 1012,5 63 0 0,0
16.07.2018 22:00:00 21,8 13,0 20,2 27,8 27,2 21,5 9 5 12 6 NNW 1011,8 65 4 0,0
16.07.2018 21:00:00 26,0 12,7 24,5 29,6 27,2 21,5 6 3 8 4 N 1011,0 70 60 0,0
16.07.2018 20:00:00 27,9 10,7 29,2 30,8 27,1 21,5 6 3 9 5 SSW 1010,6 70 57 0,0
16.07.2018 19:00:00 27,0 11,9 27,7 31,5 26,9 21,5 6 4 12 6 WSW 1010,7 70 43 0,0
16.07.2018 18:00:00 28,8 12,8 33,4 31,9 26,7 21,5 5 3 16 9 WSW 1010,7 52 60 0,0
16.07.2018 17:00:00 27,0 13,1 29,8 30,8 26,4 21,5 12 7 19 10 NW 1011,3 69 12 0,0
16.07.2018 16:00:00 27,0 13,2 29,3 31,9 25,9 21,4 8 5 14 8 SW 1011,5 55 1 0,0
16.07.2018 15:00:00 27,2 11,2 30,2 33,9 25,1 21,4 11 6 16 9 SSE 1011,7 70 53 0,0
16.07.2018 14:00:00 27,6 11,7 34,4 32,3 24,4 21,4 6 3 16 9 NW 1012,4 27 60 0,0
16.07.2018 13:00:00 26,3 11,8 32,3 30,3 23,7 21,4 7 4 18 10 SE 1013,0 34 60 0,0
16.07.2018 12:00:00 25,3 12,6 31,4 27,9 23,3 21,4 9 5 15 8 S 1013,7 31 60 0,0
16.07.2018 11:00:00 23,2 13,9 28,9 25,2 23,0 21,4 5 3 13 7 SE 1014,1 33 60 0,0
16.07.2018 10:00:00 20,5 13,3 24,8 22,7 22,9 21,4 6 4 13 7 S 1014,3 23 60 0,0
16.07.2018 09:00:00 18,4 13,8 21,1 20,8 23,1 21,4 4 2 8 4 S 1014,6 21 29 0,0
16.07.2018 08:00:00 16,7 13,8 16,2 20,3 23,3 21,4 0 0 8 5 N 1014,5 25 14 0,0
16.07.2018 07:00:00 15,5 13,2 15,0 20,3 23,6 21,4 9 5 12 7 NNW 1014,5 22 7 0,0
16.07.2018 06:00:00 15,1 13,1 14,4 20,6 23,9 21,4 7 4 10 5 NNW 1014,8 23 0 0,0
16.07.2018 05:00:00 15,9 13,2 15,0 21,1 24,1 21,4 9 5 16 9 NNW 1014,6 34 0 0,0
16.07.2018 04:00:00 16,2 13,9 15,3 21,7 24,4 21,4 8 5 10 6 NW 1015,0 25 0 0,0
16.07.2018 03:00:00 17,3 14,4 16,7 22,1 24,7 21,3 5 3 9 5 NNE 1015,1 23 0 0,0
16.07.2018 02:00:00 17,5 14,6 16,9 22,5 25,0 21,3 5 3 9 5 SSW 1014,6 20 0 0,0
16.07.2018 01:00:00 18,0 13,7 17,3 22,9 25,3 21,3 3 2 8 4 N 1014,8 34 0 0,0
16.07.2018 00:00:00 18,2 13,5 17,5 23,5 25,6 21,3 6 3 11 6 N 1014,9 31 0 0,0
15.07.2018 23:00:00 18,6 14,2 18,2 24,1 25,9 21,3 8 5 14 7 NNW 1014,9 52 0 0,0
15.07.2018 22:00:00 19,9 13,7 18,4 24,9 26,2 21,3 4 2 12 6 ESE 1015,0 43 0 0,0
15.07.2018 21:00:00 19,9 15,6 19,2 25,8 26,5 21,3 9 5 13 7 N 1014,2 30 0 0,0
15.07.2018 20:00:00 21,5 13,1 20,8 26,8 26,7 21,3 8 4 15 8 SSW 1014,4 40 0 0,0
15.07.2018 19:00:00 21,0 13,7 19,1 28,3 26,8 21,3 10 5 45 24 SW 1014,5 26 0 0,3
15.07.2018 18:00:00 27,6 11,9 28,1 30,8 26,6 21,3 9 5 14 8 SE 1013,4 39 13 0,0
15.07.2018 17:00:00 28,4 10,0 29,7 31,8 26,2 21,3 9 5 18 10 SE 1012,8 41 16 0,0
15.07.2018 16:00:00 28,9 11,4 33,2 31,9 25,6 21,2 10 5 16 9 SSE 1013,1 45 12 0,0
15.07.2018 15:00:00 30,0 11,3 37,7 32,8 25,0 21,2 5 3 22 12 WNW 1013,6 27 59 0,0
15.07.2018 14:00:00 27,8 12,6 35,1 30,4 24,5 21,2 11 6 18 10 SSE 1014,5 27 58 0,0
15.07.2018 13:00:00 26,2 13,0 30,7 27,1 24,3 21,2 4 2 8 5 WNW 1015,5 27 7 0,0
15.07.2018 12:00:00 24,5 13,3 27,3 26,2 24,0 21,2 6 3 11 6 SSE 1016,2 30 4 0,0
15.07.2018 11:00:00 23,4 14,4 25,4 25,5 23,8 21,2 10 5 16 9 SW 1016,5 28 1 0,0
15.07.2018 10:00:00 22,8 13,7 26,2 24,6 23,7 21,2 9 5 14 8 S 1016,6 24 51 0,0
15.07.2018 09:00:00 21,5 13,6 24,2 22,7 23,8 21,2 4 2 9 5 SSW 1016,7 26 59 0,0
15.07.2018 08:00:00 20,5 14,0 20,8 21,6 24,0 21,2 3 1 5 3 S 1016,5 22 60 0,0
15.07.2018 07:00:00 18,5 13,5 16,4 21,2 24,3 21,1 3 2 4 2 S 1016,4 20 34 0,0
15.07.2018 06:00:00 17,8 13,2 14,7 21,5 24,7 21,1 0 0 11 6 N 1016,5 22 0 0,0
15.07.2018 05:00:00 17,6 13,7 14,9 22,0 25,0 21,1 4 2 9 5 W 1016,8 18 0 0,0
15.07.2018 04:00:00 18,1 13,6 15,2 22,6 25,4 21,1 4 2 8 5 WSW 1016,8 20 0 0,0
15.07.2018 03:00:00 18,7 13,2 16,2 23,3 25,8 21,1 4 2 10 5 WNW 1017,1 21 0 0,0
15.07.2018 02:00:00 19,3 13,0 17,0 24,0 26,1 21,1 7 4 11 6 N 1017,3 22 0 0,0
15.07.2018 01:00:00 20,7 12,6 19,1 24,8 26,5 21,1 11 6 16 9 NNW 1017,2 23 0 0,0
15.07.2018 00:00:00 22,4 11,8 20,8 25,7 26,8 21,1 10 5 29 16 N 1016,9 25 0 0,0
14.07.2018 23:00:00 23,4 11,6 22,2 26,6 27,1 21,1 18 10 29 16 N 1016,5 29 0 0,0
14.07.2018 22:00:00 23,6 11,3 22,5 27,8 27,4 21,1 9 5 29 15 N 1016,4 36 0 0,0
14.07.2018 21:00:00 25,0 10,9 24,4 29,5 27,5 21,1 18 10 32 17 N 1015,9 35 57 0,0
14.07.2018 20:00:00 26,7 11,3 27,7 31,4 27,4 21,1 19 11 33 18 N 1015,8 38 50 0,0
14.07.2018 19:00:00 29,1 9,4 31,5 32,3 27,3 21,1 4 2 11 6 SSW 1015,6 36 52 0,0
14.07.2018 18:00:00 28,7 11,0 31,9 32,6 27,0 21,1 6 3 10 5 S 1016,2 36 20 0,0
14.07.2018 17:00:00 28,2 9,6 30,9 33,2 26,6 21,1 6 3 10 5 W 1016,5 34 9 0,0
14.07.2018 16:00:00 28,2 10,0 31,4 34,6 25,9 21,1 6 3 14 8 SSW 1016,8 34 36 0,0
14.07.2018 15:00:00 29,2 9,9 37,8 34,4 25,2 21,1 8 4 18 10 SE 1017,2 28 57 0,0
14.07.2018 14:00:00 28,8 10,7 35,8 32,8 24,4 21,1 10 6 22 12 S 1017,7 24 60 0,0
14.07.2018 13:00:00 27,9 10,2 34,9 30,8 23,8 21,0 10 5 18 10 ESE 1018,3 26 60 0,0
14.07.2018 12:00:00 27,1 10,4 32,7 28,4 23,3 21,0 8 4 22 12 SE 1018,9 28 60 0,0
14.07.2018 11:00:00 25,7 9,7 31,3 26,1 23,0 21,0 9 5 17 9 E 1019,3 31 60 0,0
14.07.2018 10:00:00 24,1 12,0 27,7 23,7 22,9 21,0 5 3 14 8 E 1019,7 30 60 0,0
14.07.2018 09:00:00 21,4 14,1 23,5 22,1 22,9 21,0 6 3 10 5 WSW 1019,7 25 2 0,0
14.07.2018 08:00:00 18,7 13,6 18,8 21,1 23,1 21,0 6 3 10 5 WSW 1019,6 27 16 0,0
14.07.2018 07:00:00 17,8 13,9 17,4 20,7 23,3 21,0 5 3 8 4 W 1019,7 22 2 0,0
14.07.2018 06:00:00 17,6 12,9 16,1 21,0 23,5 21,0 5 3 9 5 WNW 1019,5 28 0 0,0
14.07.2018 05:00:00 17,8 13,2 17,0 21,2 23,8 21,0 5 3 8 5 NW 1019,5 24 0 0,0
14.07.2018 04:00:00 17,9 12,9 16,9 21,4 24,1 21,0 4 2 10 5 WNW 1019,5 23 0 0,0
14.07.2018 03:00:00 17,9 12,3 16,5 21,8 24,5 21,0 8 5 12 6 NW 1019,6 26 0 0,0
14.07.2018 02:00:00 18,6 12,5 15,3 22,4 24,8 21,0 6 4 12 6 NNW 1019,5 27 0 0,0
14.07.2018 01:00:00 20,0 12,6 17,4 23,1 25,2 21,0 9 5 13 7 N 1019,6 25 0 0,0
14.07.2018 00:00:00 20,3 12,9 17,3 23,8 25,5 21,0 6 3 8 4 NW 1019,3 25 0 0,0
13.07.2018 23:00:00 20,3 13,0 17,0 24,8 25,8 21,0 6 3 8 4 W 1019,0 24 0 0,0
13.07.2018 22:00:00 21,8 12,8 19,4 26,1 26,1 21,0 6 4 20 11 NNW 1018,7 27 6 0,0
13.07.2018 21:00:00 23,9 12,5 23,2 27,4 26,2 21,0 12 6 21 11 NNW 1018,1 30 30 0,0
13.07.2018 20:00:00 25,2 12,2 25,4 28,9 26,2 21,0 13 7 26 14 NNW 1018,0 31 54 0,0
13.07.2018 19:00:00 26,7 12,2 29,2 29,5 26,0 21,0 18 10 30 16 NNW 1018,0 27 15 0,0
13.07.2018 18:00:00 26,9 10,7 28,5 31,4 25,8 21,0 8 5 27 14 NNE 1018,1 32 47 0,0
13.07.2018 17:00:00 27,4 11,0 32,7 31,1 25,4 21,0 14 8 34 18 N 1018,2 37 22 0,0
13.07.2018 16:00:00 26,7 11,9 29,9 31,3 24,9 21,0 5 3 17 9 S 1018,5 35 19 0,0
13.07.2018 15:00:00 27,7 12,1 34,1 31,1 24,3 21,0 4 2 11 6 SSW 1018,5 34 23 0,0
13.07.2018 14:00:00 27,1 12,5 32,5 30,5 23,6 21,0 6 3 17 9 SW 1019,1 33 20 0,0
13.07.2018 13:00:00 26,2 11,1 34,1 30,3 23,0 21,0 9 5 16 9 SSE 1019,4 27 60 0,0
13.07.2018 12:00:00 25,1 13,0 31,4 27,5 22,4 21,0 10 5 16 9 S 1019,6 25 60 0,0
13.07.2018 11:00:00 24,0 12,6 29,0 25,2 22,1 21,0 9 5 16 9 S 1019,8 26 60 0,0
13.07.2018 10:00:00 22,7 13,9 26,6 22,9 22,0 21,0 5 3 9 5 SSE 1020,1 18 60 0,0
13.07.2018 09:00:00 20,3 14,3 22,8 21,1 22,0 21,0 5 3 7 4 SSE 1020,1 14 60 0,0
13.07.2018 08:00:00 17,5 13,8 18,2 20,1 22,1 21,0 5 3 7 4 SSW 1020,1 12 33 0,0
13.07.2018 07:00:00 16,4 13,7 16,1 19,4 22,4 21,1 0 0 13 7 N 1020,0 10 6 0,0
13.07.2018 06:00:00 15,5 13,2 14,0 19,4 22,7 21,1 8 4 10 5 NW 1020,0 12 0 0,0
13.07.2018 05:00:00 15,6 13,2 13,4 19,9 23,0 21,1 4 2 10 6 NNW 1019,7 13 0 0,0
13.07.2018 04:00:00 15,7 13,2 13,8 20,4 23,3 21,1 5 3 14 8 NW 1019,5 13 0 0,0
13.07.2018 03:00:00 16,5 13,4 15,0 21,1 23,7 21,1 7 4 12 6 N 1019,3 14 0 0,0
13.07.2018 02:00:00 16,6 13,4 15,5 21,8 24,0 21,1 8 5 14 7 NNW 1019,2 15 0 0,0
13.07.2018 01:00:00 17,8 14,0 16,2 22,6 24,3 21,1 9 5 11 6 N 1019,2 17 0 0,0
13.07.2018 00:00:00 19,5 14,1 17,5 23,6 24,5 21,1 4 2 17 9 E 1019,0 19 0 0,0
12.07.2018 23:00:00 21,0 14,5 19,7 24,6 24,7 21,1 2 1 9 5 NE 1018,6 21 0 0,0
12.07.2018 22:00:00 22,1 14,3 21,1 25,6 24,9 21,1 7 4 13 7 NNE 1018,2 22 7 0,0
12.07.2018 21:00:00 23,7 12,9 23,2 26,8 24,9 21,2 9 5 14 8 NW 1017,4 24 49 0,0
12.07.2018 20:00:00 24,5 12,4 25,1 28,1 24,7 21,2 8 4 22 12 NW 1017,1 26 53 0,0
12.07.2018 19:00:00 24,9 12,0 28,5 29,1 24,4 21,2 9 5 15 8 NW 1017,0 31 40 0,0
12.07.2018 18:00:00 25,3 12,1 29,7 30,4 23,9 21,2 8 4 19 10 W 1017,2 29 60 0,0
12.07.2018 17:00:00 24,9 11,6 31,0 29,5 23,4 21,2 7 4 13 7 SSW 1017,4 32 33 0,0
12.07.2018 16:00:00 23,7 10,9 29,4 29,2 22,8 21,2 11 6 22 12 N 1017,9 33 38 0,0
12.07.2018 15:00:00 23,9 11,0 31,8 28,0 22,1 21,2 11 6 27 15 NNW 1018,0 22 32 0,0
12.07.2018 14:00:00 24,1 11,9 31,9 26,9 21,6 21,2 11 6 24 13 NNW 1018,0 28 52 0,0
12.07.2018 13:00:00 21,4 11,5 24,8 24,2 21,3 21,2 13 7 26 14 N 1018,2 27 24 0,0
12.07.2018 12:00:00 20,8 12,4 25,1 22,5 21,1 21,3 12 6 23 12 N 1018,1 30 22 0,0
12.07.2018 11:00:00 19,6 12,6 19,1 21,2 20,9 21,3 14 8 21 11 N 1018,3 27 9 0,0
12.07.2018 10:00:00 19,0 12,7 19,0 20,7 20,8 21,3 9 5 25 13 NNE 1018,1 20 50 0,0
12.07.2018 09:00:00 18,2 14,0 19,0 19,3 20,9 21,3 9 5 16 8 N 1017,7 10 9 0,0
12.07.2018 08:00:00 17,0 14,1 16,1 18,7 21,0 21,3 5 3 14 8 N 1017,4 10 4 0,0
12.07.2018 07:00:00 16,5 14,0 15,5 18,5 21,2 21,3 11 6 16 9 N 1017,1 8 10 0,0
12.07.2018 06:00:00 15,4 14,0 14,2 18,6 21,4 21,3 5 3 16 9 WNW 1017,0 3,9 0 0,0
12.07.2018 05:00:00 16,2 14,1 15,1 19,1 21,6 21,3 13 7 19 10 N 1016,7 6 0 0,0
12.07.2018 04:00:00 16,3 14,6 15,2 19,5 21,7 21,3 10 5 16 9 NNW 1016,5 6 0 0,0
12.07.2018 03:00:00 16,0 15,3 15,8 19,9 21,9 21,4 3 2 14 8 WSW 1016,6 3,8 0 1,3
12.07.2018 02:00:00 16,9 14,0 16,1 20,2 22,0 21,4 9 5 18 10 WNW 1016,6 5 0 0,0
12.07.2018 01:00:00 17,6 13,5 17,4 20,4 22,1 21,4 9 5 15 8 W 1016,6 21 0 0,0
12.07.2018 00:00:00 17,6 13,3 17,1 20,6 22,3 21,4 8 4 23 13 WSW 1016,6 24 0 0,0
11.07.2018 23:00:00 17,4 12,5 17,0 21,1 22,4 21,4 9 5 19 10 NNW 1016,6 22 0 0,0
11.07.2018 22:00:00 18,6 11,5 18,1 21,6 22,5 21,4 11 6 21 12 NW 1016,4 21 0 0,0
11.07.2018 21:00:00 19,9 9,8 19,6 22,4 22,5 21,4 9 5 15 8 NNW 1016,2 27 0 0,0
11.07.2018 20:00:00 20,6 9,9 21,2 22,8 22,5 21,4 8 4 16 9 W 1016,1 24 0 0,0
11.07.2018 19:00:00 20,2 9,3 20,5 22,9 22,4 21,4 10 5 23 13 NW 1016,2 25 0 0,0
11.07.2018 18:00:00 21,3 8,7 23,2 22,9 22,3 21,4 9 5 24 13 NW 1016,1 30 0 0,0
11.07.2018 17:00:00 20,4 10,0 21,5 22,7 22,2 21,4 13 7 22 12 NW 1016,3 28 2 0,0
11.07.2018 16:00:00 19,7 10,6 20,7 23,1 22,0 21,5 6 3 18 10 WNW 1016,5 31 0 0,0
11.07.2018 15:00:00 20,1 10,8 22,2 23,8 21,7 21,5 13 7 23 12 WNW 1016,5 22 8 0,0
11.07.2018 14:00:00 20,2 9,8 26,0 23,6 21,4 21,5 9 5 27 15 NNW 1016,5 33 23 0,0
11.07.2018 13:00:00 18,9 10,9 21,5 22,9 21,2 21,5 16 8 28 15 NNW 1016,8 29 31 0,0

tt = Température de l'air
td = dewpoint
tt 5cm = Température de l'air 5cm
tt -5cm = Température de l'air -5cm
tt -20cm = Température de l'air -20cm
tt -100cm = Température de l'air -100cm
ff = Vitesse du vent
fx = gusts
dd = Direction du vent
ppp = reduced air pressure
vv = visibility
sd = Ensoleillement
rr = Quantités de précipitations

stations d'obs. à proximité